Location: Newark
(15.4608°S, 41.1635°W)
Time: 23:36:22
(UTC+00:00)

Transit 4A - Pass Details

Date: 11 March 2021
Orbit: 869 x 975 km, 66.8° (Epoch: 16 April)

Event Time Altitude Azimuth Distance (km) Brightness Sun altitude
Rises 10:15:11 0° 222° (SW) 3,649 10.6 20.3°
Reaches altitude 10° 10:18:13 10° 235° (SW) 2,709 9.9 21.1°
Maximum altitude 10:23:09 24° 287° (WNW) 1,891 9.2 22.3°
Drops below altitude 10° 10:28:06 10° 338° (NNW) 2,711 10.2 23.5°
Sets 10:31:10 0° 352° (N) 3,651 11.0 24.2°
